Location: Gunung Kajang
(2.4167°N, 113.7167°E)
Time: 17:02:16
(UTC+00:00)

Centaur D-1AR AC-48 - Pass Details

Date: 29 May 2022
Orbit: 615 x 36172 km, 21.1° (Epoch: 28 June)

Event Time Altitude Azimuth Distance (km) Brightness Sun altitude
Rises 13:18:49 0° 267° (W) 5,269 7.0 -39.1°
Reaches altitude 10° 13:24:02 10° 283° (WNW) 2,848 5.5 -40.2°
Enters shadow 13:26:40 18° 309° (NW) 1,815 4.5 -40.7°
